User: anonymous   Login
Location: Durham
(54.7770°N, 1.5720°W)
Time: 23:00:51
(UTC+00:00)
Language:

ISS - Orbit

View from above orbital plane
View from above orbital plane
View from above satellite
View from above satellite

Ground track
Ground track

The orbit data is extracted from the following two-line orbital elements,

1 25544U 98067A   15059.71090319  .00012439  00000-0  18930-3 0  9993
2 25544 051.6466 265.8246 0007848 058.6991 060.0725 15.54906427931150
Epoch (UTC): 28 February 2015 17:03:42
Eccentricity: 0.0007848
inclination: 51.6466°
perigee height: 397 km
apogee height: 408 km
right ascension of ascending node: 265.8246°
argument of perigee: 58.6991°
revolutions per day: 15.54906427
mean anomaly at epoch: 60.0725°
orbit number at epoch: 93115

The dashed part of the orbit path shows where the satellite is in the earth's shadow,  

DLR